Home > Weather > Arth > Past weeks

Flag for Switzerland Past Weather in Arth, Schwyz, Switzerland — Yesterday and Last 2 Weeks

Now
60 °F

Cool.


Feels Like: 60 °F
Forecast: 54 / 72 °F
Wind: 2 mph from South

Location: Altdorf

Current Time: Aug 25, 2016 at 6:52:16 AM

Latest Report: Aug 25, 2016 at 6:00 AM


Visibility: N/A

Pressure: 30.11 "Hg

Humidity: 90%

Dew Point: 57 °F

Location of ArthLocation

Past Weather in Arth — Graph

°F

Arth Temperature Yesterday

Maximum temperature yesterday: 80 °F (at 5:00 PM)
Minimum temperature yesterday: 55 °F (at 8:00 AM)
Average temperature yesterday: 66 °F

High & Low Weather Summary for the Past Weeks

 TemperatureHumidityPressure
High80 °F (Aug 16, 4:00 PM)99% (Aug 11, 5:00 AM)30.39 "Hg (Aug 11, 5:00 AM)
Low48 °F (Aug 11, 7:00 AM)49% (Aug 16, 5:00 PM)29.82 "Hg (Aug 18, 1:00 PM)
Average63 °F80%30.13 "Hg
* Reported Aug 10 5:00 AM — Aug 25 5:00 AM, Arth, Weather by CustomWeather, © 2016

Note: Actual official high and low records may vary slightly from our data, if they occured in-between our weather recording intervals... More about our weather records

Advertising

Arth Weather History for the Previous 24 Hours

Scroll right to see more
 ConditionsComfort  
Time TempWeatherWind HumidityBarometerVisibility
5:00 AM
Thu, Aug 25
59 °FClear.3 mph95%30.11 "Hg19 mi
4:00 AM60 °FCool.2 mph95%30.10 "HgN/A
3:00 AM60 °FCool.2 mph96%30.10 "HgN/A
2:00 AM61 °FClear.1 mph95%30.10 "Hg19 mi
1:00 AM62 °FCool.1 mph94%30.11 "HgN/A
12:00 AM65 °FMild.2 mph88%30.10 "HgN/A
11:00 PM
Wed, Aug 24
67 °FClear.1 mph84%30.11 "Hg19 mi
10:00 PM66 °FMild.2 mph87%30.13 "HgN/A
9:00 PM68 °FMild.2 mph84%30.11 "HgN/A
8:00 PM71 °FSunny.1 mph79%30.09 "Hg19 mi
7:00 PM71 °FMild.1 mph83%30.09 "HgN/A
6:00 PM75 °FMild.2 mph69%30.09 "HgN/A
5:00 PM80 °FSunny.3 mph60%30.09 "Hg19 mi
4:00 PM79 °FWarm.5 mph59%30.10 "HgN/A
3:00 PM76 °FMild.5 mph59%30.12 "HgN/A
2:00 PM76 °FSunny.5 mph62%30.13 "Hg19 mi
1:00 PM74 °FMild.5 mph62%30.15 "HgN/A
12:00 PM72 °FMild.3 mph66%30.17 "HgN/A
11:00 AM69 °FSunny.2 mph74%30.20 "Hg19 mi
10:00 AM66 °FMild.1 mph76%30.22 "HgN/A
9:00 AM62 °FCool.1 mph86%30.23 "HgN/A
8:00 AM55 °FSunny.1 mph95%30.25 "Hg19 mi
7:00 AM55 °FCool.2 mph94%30.24 "HgN/A
6:00 AM56 °FCool.1 mph94%30.22 "HgN/A
Weather by CustomWeather, © 2016

See weather overviewHow to use our weather pages